Kill Devil Hills, NC

9:20 PM EDT on October 18, 2017 (GMT -0400)
First Flight

Weather History for KFFA - November, 2012

Change the Weather History Date:

Friday, November 9, 2012

  Actual Average (KMQI) Record (KMQI)
Temperature  
Mean Temperature 47 °F -  
Max Temperature 53 °F 61 °F 78 °F (1986)
Min Temperature 41 °F 49 °F 29 °F (1967)
Degree Days  
Heating Degree Days 18    
Moisture  
Dew Point 33 °F    
Average Humidity 60    
Maximum Humidity 90    
Minimum Humidity 36    
Precipitation  
Precipitation 0.00 in - - ()
Sea Level Pressure  
Sea Level Pressure 30.16 in    
Wind  
Wind Speed 6 mph (WNW)    
Max Wind Speed 10 mph    
Max Gust Speed 20 mph    
Visibility 10 miles    
Events      
Averages and records for this station are not official NWS values.
T = Trace of Precipitation, MM = Missing Value Source: NWS Daily Summary

Daily Weather History Graph

Daily Weather History Graph

Search for Another Location

Airport or City:

Trip Planner

Search our weather history database for the weather conditions in past years. The results will help you decide how hot, cold, wet, or windy it might be!

Date:

Astronomy

Nov. 09, 2012 Rise Set
Actual Time 6:33 AM EST 4:59 PM EST
Civil Twilight 6:06 AM EST 5:26 PM EST
Nautical Twilight 5:35 AM EST 5:56 PM EST
Astronomical Twilight 5:05 AM EST 6:26 PM EST
Moon 1:38 AM EST (11/9) 2:03 PM EST (11/9)
Length of Visible Light 11h 19m
Length of Day
10h 25m
Waning Crescent, 23% of the Moon is Illuminated
Nov 9
Waning Crescent
Nov 13
New
Nov 20
First Quarter
Nov 28
Full
Dec 6
Last Quarter

Hourly Weather History & Observations

Time (EST) Temp. Windchill Dew Point Humidity Pressure Visibility Wind Dir Wind Speed Gust Speed Precip Events Conditions
12:15 AM 46.0 °F 41.4 °F 22.6 °F 40% 30.02 in 10.0 mi NNW 9.2 mph 17.3 mph N/A   Clear
12:35 AM 46.4 °F 42.4 °F 21.9 °F 38% 30.02 in 10.0 mi NNW 8.1 mph - N/A   Clear
12:55 AM 46.4 °F 41.9 °F 22.6 °F 39% 30.02 in 10.0 mi NNW 9.2 mph - N/A   Clear
1:15 AM 45.9 °F 41.2 °F 24.4 °F 43% 30.03 in 10.0 mi NNW 9.2 mph - N/A   Clear
1:35 AM 45.5 °F 41.3 °F 25.9 °F 46% 30.04 in 10.0 mi NNW 8.1 mph 19.6 mph N/A   Clear
1:55 AM 45.1 °F 40.8 °F 27.3 °F 50% 30.04 in 10.0 mi NW 8.1 mph - N/A   Clear
2:15 AM 44.2 °F 41.0 °F 28.2 °F 53% 30.04 in 10.0 mi NW 5.8 mph - N/A   Clear
2:35 AM 43.5 °F 39.4 °F 29.1 °F 57% 30.05 in 10.0 mi NW 6.9 mph - N/A   Clear
2:55 AM 43.2 °F 39.7 °F 29.7 °F 59% 30.06 in 10.0 mi NW 5.8 mph - N/A   Clear
3:15 AM 42.6 °F 37.8 °F 29.8 °F 61% 30.06 in 10.0 mi NW 8.1 mph - N/A   Clear
3:35 AM 42.4 °F 38.1 °F 29.5 °F 60% 30.07 in 10.0 mi NW 6.9 mph - N/A   Clear
3:55 AM 42.3 °F 37.3 °F 30.4 °F 63% 30.07 in 10.0 mi NW 8.1 mph - N/A   Clear
4:35 AM 42.1 °F 36.6 °F 31.3 °F 66% 30.09 in 10.0 mi NW 9.2 mph - N/A   Clear
4:55 AM 42.1 °F 36.6 °F 31.1 °F 65% 30.10 in 10.0 mi NW 9.2 mph - N/A   Clear
5:15 AM 42.1 °F 36.6 °F 31.5 °F 66% 30.10 in 10.0 mi NW 9.2 mph 16.1 mph N/A   Clear
5:35 AM 41.9 °F 36.9 °F 31.8 °F 67% 30.11 in 10.0 mi NW 8.1 mph - N/A   Clear
5:55 AM 41.9 °F 37.5 °F 32.0 °F 68% 30.11 in 10.0 mi NW 6.9 mph - N/A   Clear
6:15 AM 41.7 °F 36.7 °F 32.0 °F 68% 30.12 in 10.0 mi NW 8.1 mph - N/A   Clear
6:55 AM 41.5 °F 37.8 °F 32.2 °F 69% 30.14 in 10.0 mi NW 5.8 mph - N/A   Clear
7:15 AM 41.9 °F 38.2 °F 32.5 °F 69% 30.15 in 10.0 mi NW 5.8 mph - N/A   Clear
7:35 AM 42.6 °F 39.0 °F 33.1 °F 69% 30.16 in 10.0 mi NW 5.8 mph - N/A   Clear
7:55 AM 43.7 °F 39.7 °F 33.6 °F 68% 30.17 in 10.0 mi WNW 6.9 mph - N/A   Clear
8:15 AM 44.4 °F 39.5 °F 33.6 °F 66% 30.17 in 10.0 mi NW 9.2 mph - N/A   Clear
8:35 AM 45.1 °F 41.4 °F 33.6 °F 64% 30.17 in 10.0 mi NW 6.9 mph - N/A   Clear
8:55 AM 46.2 °F 42.2 °F 34.2 °F 63% 30.18 in 10.0 mi NW 8.1 mph - N/A   Clear
9:15 AM 46.9 °F - 34.5 °F 62% 30.18 in 10.0 mi NW 5.8 mph - N/A   Clear
9:55 AM 48.4 °F - 35.2 °F 60% 30.20 in 10.0 mi NW 5.8 mph - N/A   Clear
10:15 AM 49.3 °F - 35.4 °F 59% 30.20 in 10.0 mi NW 5.8 mph 17.3 mph N/A   Clear
10:35 AM 50.2 °F - 36.0 °F 58% 30.20 in 10.0 mi NW 6.9 mph - N/A   Clear
10:55 AM 50.2 °F - 36.1 °F 59% 30.20 in 10.0 mi NW 10.4 mph - N/A   Clear
11:15 AM 50.4 °F - 36.0 °F 58% 30.20 in 10.0 mi NW 8.1 mph - N/A   Clear
11:35 AM 50.7 °F - 35.1 °F 55% 30.19 in 10.0 mi NW 6.9 mph - N/A   Clear
11:55 AM 51.4 °F - 34.3 °F 52% 30.18 in 10.0 mi WNW 5.8 mph - N/A   Clear
12:15 PM 52.2 °F - 33.3 °F 49% 30.18 in 10.0 mi NW 6.9 mph - N/A   Clear
12:35 PM 52.5 °F - 29.5 °F 41% 30.18 in 10.0 mi WNW 6.9 mph - N/A   Clear
12:55 PM 53.1 °F - 26.4 °F 36% 30.17 in 10.0 mi WNW 4.6 mph - N/A   Clear
1:15 PM 53.2 °F - 28.6 °F 39% 30.17 in 10.0 mi NW 5.8 mph - N/A   Clear
1:35 PM 52.5 °F - 32.2 °F 46% 30.17 in 10.0 mi West 4.6 mph - N/A   Clear
1:55 PM 52.2 °F - 31.5 °F 45% 30.17 in 10.0 mi WNW 9.2 mph - N/A   Clear
2:15 PM 52.5 °F - 32.5 °F 47% 30.17 in 10.0 mi West 6.9 mph - N/A   Clear
2:35 PM 52.7 °F - 32.9 °F 47% 30.18 in 10.0 mi West 6.9 mph - N/A   Clear
2:55 PM 52.7 °F - 33.6 °F 48% 30.18 in 10.0 mi WNW 4.6 mph - N/A   Clear
3:15 PM 52.2 °F - 33.4 °F 49% 30.19 in 10.0 mi WNW 4.6 mph - N/A   Clear
3:35 PM 52.0 °F - 33.8 °F 50% 30.19 in 10.0 mi West 4.6 mph - N/A   Clear
3:55 PM 51.4 °F - 33.4 °F 50% 30.19 in 10.0 mi Calm Calm - N/A   Clear
4:15 PM 50.9 °F - 33.6 °F 52% 30.19 in 10.0 mi West 3.5 mph - N/A   Clear
4:35 PM 50.2 °F - 34.0 °F 54% 30.19 in 10.0 mi Calm Calm - N/A   Clear
4:55 PM 48.4 °F - 35.2 °F 60% 30.20 in 10.0 mi Calm Calm - N/A   Clear
5:15 PM 46.8 °F - 35.8 °F 66% 30.20 in 10.0 mi Calm Calm - N/A   Clear
5:35 PM 46.4 °F - 34.7 °F 64% 30.21 in 10.0 mi Calm Calm - N/A   Clear
7:15 PM - - - N/A% 30.22 in 10.0 mi Calm Calm - N/A   Unknown
7:35 PM 45.3 °F - 35.2 °F 68% 30.22 in 10.0 mi Calm Calm - N/A   Clear
7:55 PM 45.5 °F - 35.1 °F 67% 30.22 in 10.0 mi Calm Calm - N/A   Clear
8:15 PM 45.3 °F 44.0 °F 34.7 °F 66% 30.22 in 10.0 mi SSW 3.5 mph - N/A   Clear
8:35 PM 45.5 °F - 36.1 °F 70% 30.23 in 10.0 mi Calm Calm - N/A   Clear
8:55 PM 45.7 °F - 37.9 °F 74% 30.23 in 10.0 mi Calm Calm - N/A   Clear
9:15 PM 45.1 °F - 37.6 °F 75% 30.24 in 10.0 mi Calm Calm - N/A   Clear
9:35 PM 45.1 °F - 38.5 °F 77% 30.24 in 10.0 mi Calm Calm - N/A   Clear
9:55 PM 45.1 °F 43.7 °F 39.2 °F 80% 30.25 in 10.0 mi WSW 3.5 mph - N/A   Clear
10:15 PM 45.3 °F - 39.7 °F 81% 30.25 in 10.0 mi Calm Calm - N/A   Clear
10:35 PM 46.0 °F - 41.2 °F 83% 30.25 in 10.0 mi Calm Calm - N/A   Clear
10:55 PM 46.0 °F - 41.5 °F 84% 30.26 in 10.0 mi Calm Calm - N/A   Clear
11:15 PM 46.0 °F - 41.0 °F 83% 30.26 in 10.0 mi Calm Calm - N/A   Clear
11:35 PM 45.1 °F 43.7 °F 41.5 °F 87% 30.26 in 10.0 mi SW 3.5 mph - N/A   Clear
11:55 PM 44.8 °F 43.3 °F 41.9 °F 90% 30.25 in 10.0 mi SW 3.5 mph - N/A   Clear